Time,TemperatureF,DewpointF,PressureIn,WindDirection,WindDirectionDegrees,WindSpeedMPH,WindSpeedGustMPH,Humidity,HourlyPrecipIn,Conditions,Clouds,dailyrainin,SoftwareType,DateUTC
2013-06-04 00:00:00,52.3,48.2,29.19,NNW,328,1.0,1.0,86,0.00,,,0.00,Wunderground v.1.15,2013-06-04 04:00:00,
2013-06-04 00:05:00,52.2,48.1,29.19,NW,318,1.0,1.0,86,0.00,,,0.00,Wunderground v.1.15,2013-06-04 04:05:00,
2013-06-04 00:10:00,52.2,48.1,29.19,NNW,331,1.0,1.0,86,0.00,,,0.00,Wunderground v.1.15,2013-06-04 04:10:00,
2013-06-04 00:15:00,52.2,47.8,29.20,NNW,339,1.0,1.0,85,0.00,,,0.00,Wunderground v.1.15,2013-06-04 04:15:00,
2013-06-04 00:20:00,52.1,47.7,29.20,North,355,1.0,5.0,85,0.00,,,0.00,Wunderground v.1.15,2013-06-04 04:20:00,
2013-06-04 00:25:00,52.1,47.7,29.20,North,349,1.0,5.0,85,0.00,,,0.00,Wunderground v.1.15,2013-06-04 04:25:00,
2013-06-04 00:30:00,52.0,47.6,29.20,NNW,347,1.0,2.0,85,0.00,,,0.00,Wunderground v.1.15,2013-06-04 04:30:00,
2013-06-04 00:40:00,51.9,47.5,29.20,NNW,338,0.0,0.0,85,0.00,,,0.00,Wunderground v.1.15,2013-06-04 04:40:00,
2013-06-04 00:45:00,51.8,47.4,29.20,NNW,333,0.0,0.0,85,0.00,,,0.00,Wunderground v.1.15,2013-06-04 04:45:00,
2013-06-04 00:50:00,51.9,47.8,29.20,NW,317,0.0,0.0,86,0.00,,,0.00,Wunderground v.1.15,2013-06-04 04:50:00,
2013-06-04 00:55:00,51.8,47.4,29.21,NNW,335,0.0,4.0,85,0.00,,,0.00,Wunderground v.1.15,2013-06-04 04:55:00,
2013-06-04 01:00:00,51.6,47.2,29.20,NNW,336,0.0,0.0,85,0.00,,,0.00,Wunderground v.1.15,2013-06-04 05:00:00,
2013-06-04 01:10:00,51.4,47.4,29.20,NNW,334,0.0,6.0,86,0.00,,,0.00,Wunderground v.1.15,2013-06-04 05:10:00,
2013-06-04 01:15:00,51.3,47.3,29.21,NNW,333,0.0,6.0,86,0.00,,,0.00,Wunderground v.1.15,2013-06-04 05:15:00,
2013-06-04 01:20:00,51.2,47.2,29.20,NNW,333,0.0,6.0,86,0.00,,,0.00,Wunderground v.1.15,2013-06-04 05:20:00,
2013-06-04 01:25:00,51.2,47.2,29.21,NW,325,0.0,6.0,86,0.00,,,0.00,Wunderground v.1.15,2013-06-04 05:25:00,
2013-06-04 01:30:00,51.1,47.1,29.21,NW,325,0.0,6.0,86,0.00,,,0.00,Wunderground v.1.15,2013-06-04 05:30:00,
2013-06-04 01:35:00,51.0,47.0,29.21,NW,325,0.0,6.0,86,0.00,,,0.00,Wunderground v.1.15,2013-06-04 05:35:00,
2013-06-04 01:44:00,50.8,47.1,29.21,NW,325,0.0,6.0,87,0.00,,,0.00,Wunderground v.1.15,2013-06-04 05:44:00,
2013-06-04 01:49:00,50.8,47.1,29.21,NW,326,0.0,6.0,87,0.00,,,0.00,Wunderground v.1.15,2013-06-04 05:49:00,
2013-06-04 01:54:00,50.6,46.9,29.21,NW,326,0.0,6.0,87,0.00,,,0.00,Wunderground v.1.15,2013-06-04 05:54:00,
2013-06-04 01:59:00,50.5,46.8,29.22,NW,326,0.0,6.0,87,0.00,,,0.00,Wunderground v.1.15,2013-06-04 05:59:00,
2013-06-04 02:04:00,50.4,46.7,29.22,NW,326,0.0,6.0,87,0.00,,,0.00,Wunderground v.1.15,2013-06-04 06:04:00,
2013-06-04 02:14:00,50.2,46.8,29.22,NW,326,0.0,6.0,88,0.00,,,0.00,Wunderground v.1.15,2013-06-04 06:14:00,
2013-06-04 02:19:00,50.2,46.8,29.22,NW,326,0.0,6.0,88,0.00,,,0.00,Wunderground v.1.15,2013-06-04 06:19:00,
2013-06-04 02:24:00,50.2,46.8,29.22,NW,326,0.0,6.0,88,0.00,,,0.00,Wunderground v.1.15,2013-06-04 06:24:00,
2013-06-04 02:29:00,50.1,46.7,29.22,NNW,335,0.0,6.0,88,0.00,,,0.00,Wunderground v.1.15,2013-06-04 06:29:00,
2013-06-04 02:34:00,50.1,46.7,29.22,NNW,331,0.0,6.0,88,0.00,,,0.00,Wunderground v.1.15,2013-06-04 06:34:00,
2013-06-04 02:39:00,50.0,46.6,29.22,NNW,333,0.0,6.0,88,0.00,,,0.00,Wunderground v.1.15,2013-06-04 06:39:00,
2013-06-04 02:45:00,49.9,46.2,29.22,NNW,333,0.0,6.0,87,0.00,,,0.00,Wunderground v.1.15,2013-06-04 06:45:00,
2013-06-04 02:50:00,49.8,46.1,29.22,NNW,328,0.0,6.0,87,0.00,,,0.00,Wunderground v.1.15,2013-06-04 06:50:00,
2013-06-04 02:55:00,49.7,46.0,29.22,NW,320,0.0,6.0,87,0.00,,,0.00,Wunderground v.1.15,2013-06-04 06:55:00,
2013-06-04 03:00:00,49.6,45.9,29.22,NW,320,0.0,6.0,87,0.00,,,0.00,Wunderground v.1.15,2013-06-04 07:00:00,
2013-06-04 03:05:00,49.6,46.2,29.22,NW,320,0.0,6.0,88,0.00,,,0.00,Wunderground v.1.15,2013-06-04 07:05:00,
2013-06-04 03:15:00,49.4,46.0,29.23,NW,321,0.0,6.0,88,0.00,,,0.00,Wunderground v.1.15,2013-06-04 07:15:00,
2013-06-04 03:20:00,49.4,46.0,29.22,NW,321,0.0,6.0,88,0.00,,,0.00,Wunderground v.1.15,2013-06-04 07:20:00,
2013-06-04 03:25:00,49.2,45.8,29.23,NNW,331,0.0,6.0,88,0.00,,,0.00,Wunderground v.1.15,2013-06-04 07:25:00,
2013-06-04 03:30:00,49.1,45.7,29.22,North,351,1.0,6.0,88,0.00,,,0.00,Wunderground v.1.15,2013-06-04 07:30:00,
2013-06-04 03:35:00,49.1,45.7,29.22,NNW,346,0.0,6.0,88,0.00,,,0.00,Wunderground v.1.15,2013-06-04 07:35:00,
2013-06-04 03:40:00,49.0,45.6,29.22,NNW,345,0.0,6.0,88,0.00,,,0.00,Wunderground v.1.15,2013-06-04 07:40:00,
2013-06-04 03:50:00,48.8,45.4,29.23,NNW,344,0.0,6.0,88,0.00,,,0.00,Wunderground v.1.15,2013-06-04 07:50:00,
2013-06-04 03:55:00,48.7,45.3,29.23,NNW,344,0.0,6.0,88,0.00,,,0.00,Wunderground v.1.15,2013-06-04 07:55:00,
2013-06-04 04:00:00,48.7,45.3,29.23,NNW,344,0.0,6.0,88,0.00,,,0.00,Wunderground v.1.15,2013-06-04 08:00:00,
2013-06-04 04:05:00,48.6,44.9,29.23,NNW,344,0.0,6.0,87,0.00,,,0.00,Wunderground v.1.15,2013-06-04 08:05:00,
2013-06-04 04:10:00,48.5,44.8,29.23,NNW,345,0.0,6.0,87,0.00,,,0.00,Wunderground v.1.15,2013-06-04 08:10:00,
2013-06-04 04:15:00,48.5,44.8,29.23,NNW,345,0.0,6.0,87,0.00,,,0.00,Wunderground v.1.15,2013-06-04 08:15:00,
2013-06-04 04:25:00,48.3,44.6,29.23,NNW,345,0.0,6.0,87,0.00,,,0.00,Wunderground v.1.15,2013-06-04 08:25:00,
2013-06-04 04:30:00,48.2,44.5,29.23,NNW,344,0.0,6.0,87,0.00,,,0.00,Wunderground v.1.15,2013-06-04 08:30:00,
2013-06-04 04:35:00,48.2,44.5,29.23,NNW,340,0.0,6.0,87,0.00,,,0.00,Wunderground v.1.15,2013-06-04 08:35:00,
2013-06-04 04:40:00,48.3,44.6,29.23,NW,320,0.0,6.0,87,0.00,,,0.00,Wunderground v.1.15,2013-06-04 08:40:00,
2013-06-04 04:45:00,48.3,44.3,29.23,NW,312,0.0,6.0,86,0.00,,,0.00,Wunderground v.1.15,2013-06-04 08:45:00,
2013-06-04 04:55:00,48.2,44.2,29.24,NW,312,0.0,6.0,86,0.00,,,0.00,Wunderground v.1.15,2013-06-04 08:55:00,
2013-06-04 05:00:00,48.2,43.9,29.24,NW,313,0.0,6.0,85,0.00,,,0.00,Wunderground v.1.15,2013-06-04 09:00:00,
2013-06-04 05:05:00,48.1,43.8,29.24,NW,313,0.0,6.0,85,0.00,,,0.00,Wunderground v.1.15,2013-06-04 09:05:00,
2013-06-04 05:10:00,47.9,43.3,29.24,NW,313,0.0,6.0,84,0.00,,,0.00,Wunderground v.1.15,2013-06-04 09:10:00,
2013-06-04 05:15:00,47.8,43.2,29.25,NW,313,0.0,6.0,84,0.00,,,0.00,Wunderground v.1.15,2013-06-04 09:15:00,
2013-06-04 05:20:00,47.8,43.5,29.25,NW,314,0.0,6.0,85,0.00,,,0.00,Wunderground v.1.15,2013-06-04 09:20:00,
2013-06-04 05:29:00,48.0,44.0,29.25,NW,316,0.0,6.0,86,0.00,,,0.00,Wunderground v.1.15,2013-06-04 09:29:00,
2013-06-04 05:34:00,48.1,43.8,29.25,NW,316,0.0,6.0,85,0.00,,,0.00,Wunderground v.1.15,2013-06-04 09:34:00,
2013-06-04 05:39:00,48.0,43.7,29.25,NW,316,0.0,6.0,85,0.00,,,0.00,Wunderground v.1.15,2013-06-04 09:39:00,
2013-06-04 05:44:00,48.1,43.8,29.25,NW,321,0.0,6.0,85,0.00,,,0.00,Wunderground v.1.15,2013-06-04 09:44:00,
2013-06-04 05:49:00,48.0,43.7,29.25,NNW,335,0.0,6.0,85,0.00,,,0.00,Wunderground v.1.15,2013-06-04 09:49:00,
2013-06-04 05:59:00,48.1,43.5,29.25,NNW,335,0.0,6.0,84,0.00,,,0.00,Wunderground v.1.15,2013-06-04 09:59:00,
2013-06-04 06:04:00,48.1,43.5,29.26,NNW,335,0.0,6.0,84,0.00,,,0.00,Wunderground v.1.15,2013-06-04 10:04:00,
2013-06-04 06:09:00,48.7,44.1,29.26,NNW,335,0.0,6.0,84,0.00,,,0.00,Wunderground v.1.15,2013-06-04 10:09:00,
2013-06-04 06:14:00,49.4,44.5,29.26,NNW,335,0.0,6.0,83,0.00,,,0.00,Wunderground v.1.15,2013-06-04 10:14:00,
2013-06-04 06:19:00,50.2,44.9,29.26,NNW,335,0.0,6.0,82,0.00,,,0.00,Wunderground v.1.15,2013-06-04 10:19:00,
2013-06-04 06:24:00,51.6,46.0,29.26,NNW,335,0.0,6.0,81,0.00,,,0.00,Wunderground v.1.15,2013-06-04 10:24:00,
2013-06-04 06:30:00,53.1,46.1,29.26,NNW,336,0.0,6.0,77,0.00,,,0.00,Wunderground v.1.15,2013-06-04 10:30:00,
2013-06-04 06:35:00,54.4,46.6,29.26,NNW,336,0.0,6.0,75,0.00,,,0.00,Wunderground v.1.15,2013-06-04 10:35:00,
2013-06-04 06:44:00,56.7,47.0,29.27,NNW,337,0.0,6.0,70,0.00,,,0.00,Wunderground v.1.15,2013-06-04 10:44:00,
2013-06-04 06:49:00,57.5,46.6,29.27,NNW,344,0.0,6.0,67,0.00,,,0.00,Wunderground v.1.15,2013-06-04 10:49:00,
2013-06-04 06:54:00,58.0,47.1,29.27,North,350,0.0,6.0,67,0.00,,,0.00,Wunderground v.1.15,2013-06-04 10:54:00,
2013-06-04 07:00:00,58.6,46.9,29.27,NNE,32,1.0,6.0,65,0.00,,,0.00,Wunderground v.1.15,2013-06-04 11:00:00,
2013-06-04 07:05:00,58.4,46.3,29.27,North,360,2.0,6.0,64,0.00,,,0.00,Wunderground v.1.15,2013-06-04 11:05:00,
2013-06-04 07:10:00,58.3,46.6,29.27,North,5,1.0,1.0,65,0.00,,,0.00,Wunderground v.1.15,2013-06-04 11:10:00,
2013-06-04 07:15:00,57.9,45.4,29.27,NNE,24,2.0,2.0,63,0.00,,,0.00,Wunderground v.1.15,2013-06-04 11:15:00,
2013-06-04 07:20:00,57.6,46.3,29.27,NNW,346,3.0,3.0,66,0.00,,,0.00,Wunderground v.1.15,2013-06-04 11:20:00,
2013-06-04 07:25:00,58.0,45.9,29.27,North,11,2.0,6.0,64,0.00,,,0.00,Wunderground v.1.15,2013-06-04 11:25:00,
2013-06-04 07:35:00,58.1,45.6,29.28,NNE,16,2.0,6.0,63,0.00,,,0.00,Wunderground v.1.15,2013-06-04 11:35:00,
2013-06-04 07:40:00,58.2,45.7,29.28,North,5,2.0,6.0,63,0.00,,,0.00,Wunderground v.1.15,2013-06-04 11:40:00,
2013-06-04 07:45:00,57.8,45.3,29.28,NNE,28,3.0,6.0,63,0.00,,,0.00,Wunderground v.1.15,2013-06-04 11:45:00,
2013-06-04 07:50:00,57.5,45.4,29.28,NNW,348,3.0,3.0,64,0.00,,,0.00,Wunderground v.1.15,2013-06-04 11:50:00,
2013-06-04 07:55:00,57.8,45.7,29.28,North,360,3.0,6.0,64,0.00,,,0.00,Wunderground v.1.15,2013-06-04 11:55:00,
2013-06-04 08:00:00,58.7,46.1,29.29,NNE,24,2.0,6.0,63,0.00,,,0.00,Wunderground v.1.15,2013-06-04 12:00:00,
2013-06-04 08:10:00,58.5,46.4,29.29,NNE,26,3.0,6.0,64,0.00,,,0.00,Wunderground v.1.15,2013-06-04 12:10:00,
2013-06-04 08:15:00,58.6,46.5,29.29,North,5,3.0,6.0,64,0.00,,,0.00,Wunderground v.1.15,2013-06-04 12:15:00,
2013-06-04 08:20:00,58.7,46.1,29.29,NE,43,4.0,7.0,63,0.00,,,0.00,Wunderground v.1.15,2013-06-04 12:20:00,
2013-06-04 08:25:00,58.6,46.9,29.29,NNE,32,4.0,7.0,65,0.00,,,0.00,Wunderground v.1.15,2013-06-04 12:25:00,
2013-06-04 08:30:00,58.5,46.4,29.29,NNE,33,4.0,6.0,64,0.00,,,0.00,Wunderground v.1.15,2013-06-04 12:30:00,
2013-06-04 08:40:00,59.0,47.2,29.30,NNE,18,5.0,7.0,65,0.00,,,0.00,Wunderground v.1.15,2013-06-04 12:40:00,
2013-06-04 08:45:00,59.4,47.2,29.30,NNE,32,5.0,7.0,64,0.00,,,0.00,Wunderground v.1.15,2013-06-04 12:45:00,
2013-06-04 08:50:00,59.5,47.7,29.30,NNE,31,6.0,6.0,65,0.00,,,0.00,Wunderground v.1.15,2013-06-04 12:50:00,
2013-06-04 08:55:00,59.9,47.7,29.31,NNE,30,5.0,7.0,64,0.00,,,0.00,Wunderground v.1.15,2013-06-04 12:55:00,
2013-06-04 09:00:00,60.0,46.9,29.31,NE,42,5.0,6.0,62,0.00,,,0.00,Wunderground v.1.15,2013-06-04 13:00:00,
2013-06-04 09:05:00,59.8,46.7,29.31,NE,37,7.0,7.0,62,0.00,,,0.00,Wunderground v.1.15,2013-06-04 13:05:00,
2013-06-04 09:14:00,60.0,46.5,29.31,NE,47,6.0,6.0,61,0.00,,,0.00,Wunderground v.1.15,2013-06-04 13:14:00,
2013-06-04 09:19:00,60.3,46.8,29.31,NE,36,7.0,7.0,61,0.00,,,0.00,Wunderground v.1.15,2013-06-04 13:19:00,
2013-06-04 09:24:00,60.5,46.5,29.32,NE,53,6.0,7.0,60,0.00,,,0.00,Wunderground v.1.15,2013-06-04 13:24:00,
2013-06-04 09:29:00,60.4,45.5,29.31,NE,51,6.0,6.0,58,0.00,,,0.00,Wunderground v.1.15,2013-06-04 13:29:00,
2013-06-04 09:34:00,60.4,45.5,29.32,ENE,71,6.0,6.0,58,0.00,,,0.00,Wunderground v.1.15,2013-06-04 13:34:00,
2013-06-04 09:44:00,60.2,45.8,29.32,NNE,26,7.0,7.0,59,0.00,,,0.00,Wunderground v.1.15,2013-06-04 13:44:00,
2013-06-04 09:49:00,60.7,46.3,29.32,NE,34,7.0,7.0,59,0.00,,,0.00,Wunderground v.1.15,2013-06-04 13:49:00,
2013-06-04 09:54:00,61.1,46.7,29.32,NNE,25,6.0,7.0,59,0.00,,,0.00,Wunderground v.1.15,2013-06-04 13:54:00,
2013-06-04 09:59:00,61.2,43.4,29.32,NE,49,7.0,13.0,52,0.00,,,0.00,Wunderground v.1.15,2013-06-04 13:59:00,
2013-06-04 10:04:00,60.0,43.8,29.32,ENE,58,8.0,13.0,55,0.00,,,0.00,Wunderground v.1.15,2013-06-04 14:04:00,
2013-06-04 10:09:00,60.1,44.3,29.32,ENE,61,8.0,8.0,56,0.00,,,0.00,Wunderground v.1.15,2013-06-04 14:09:00,
2013-06-04 10:15:00,60.7,44.9,29.32,NE,35,6.0,8.0,56,0.00,,,0.00,Wunderground v.1.15,2013-06-04 14:15:00,
2013-06-04 10:20:00,61.3,43.5,29.32,NE,54,7.0,7.0,52,0.00,,,0.00,Wunderground v.1.15,2013-06-04 14:20:00,
2013-06-04 10:25:00,61.2,43.4,29.32,NE,55,8.0,8.0,52,0.00,,,0.00,Wunderground v.1.15,2013-06-04 14:25:00,
2013-06-04 10:30:00,61.3,44.0,29.32,NE,42,7.0,7.0,53,0.00,,,0.00,Wunderground v.1.15,2013-06-04 14:30:00,
2013-06-04 10:35:00,61.8,44.0,29.32,NNE,29,7.0,9.0,52,0.00,,,0.00,Wunderground v.1.15,2013-06-04 14:35:00,
2013-06-04 10:40:00,62.0,44.2,29.32,NE,34,8.0,8.0,52,0.00,,,0.00,Wunderground v.1.15,2013-06-04 14:40:00,
2013-06-04 10:50:00,61.4,42.1,29.32,NE,48,8.0,10.0,49,0.00,,,0.00,Wunderground v.1.15,2013-06-04 14:50:00,
2013-06-04 10:55:00,62.3,42.9,29.32,NNE,33,8.0,10.0,49,0.00,,,0.00,Wunderground v.1.15,2013-06-04 14:55:00,
2013-06-04 11:00:00,63.0,43.5,29.32,NE,42,8.0,9.0,49,0.00,,,0.00,Wunderground v.1.15,2013-06-04 15:00:00,
2013-06-04 11:05:00,63.3,42.7,29.32,ENE,61,8.0,10.0,47,0.00,,,0.00,Wunderground v.1.15,2013-06-04 15:05:00,
2013-06-04 11:10:00,63.4,44.4,29.32,NE,43,7.0,12.0,50,0.00,,,0.00,Wunderground v.1.15,2013-06-04 15:10:00,
2013-06-04 11:20:00,62.5,43.1,29.32,NE,53,7.0,12.0,49,0.00,,,0.00,Wunderground v.1.15,2013-06-04 15:20:00,
2013-06-04 11:25:00,61.7,41.3,29.32,ENE,65,8.0,12.0,47,0.00,,,0.00,Wunderground v.1.15,2013-06-04 15:25:00,
2013-06-04 11:30:00,62.4,45.0,29.32,NE,37,8.0,10.0,53,0.00,,,0.00,Wunderground v.1.15,2013-06-04 15:30:00,
2013-06-04 11:35:00,63.2,45.3,29.32,NNE,26,7.0,10.0,52,0.00,,,0.00,Wunderground v.1.15,2013-06-04 15:35:00,
2013-06-04 11:40:00,64.1,45.6,29.32,NE,47,7.0,8.0,51,0.00,,,0.00,Wunderground v.1.15,2013-06-04 15:40:00,
2013-06-04 11:45:00,64.1,45.1,29.32,NE,43,7.0,8.0,50,0.00,,,0.00,Wunderground v.1.15,2013-06-04 15:45:00,
2013-06-04 11:55:00,63.5,44.0,29.32,NE,52,8.0,11.0,49,0.00,,,0.00,Wunderground v.1.15,2013-06-04 15:55:00,
2013-06-04 12:00:00,63.9,43.8,29.32,NE,39,7.0,7.0,48,0.00,,,0.00,Wunderground v.1.15,2013-06-04 16:00:00,
2013-06-04 12:05:00,64.2,45.7,29.31,ENE,61,6.0,7.0,51,0.00,,,0.00,Wunderground v.1.15,2013-06-04 16:05:00,
2013-06-04 12:10:00,64.4,43.7,29.31,ENE,67,6.0,6.0,47,0.00,,,0.00,Wunderground v.1.15,2013-06-04 16:10:00,
2013-06-04 12:15:00,63.3,44.3,29.31,NE,40,7.0,8.0,50,0.00,,,0.00,Wunderground v.1.15,2013-06-04 16:15:00,
2013-06-04 12:24:00,64.0,44.4,29.30,NNE,24,6.0,8.0,49,0.00,,,0.00,Wunderground v.1.15,2013-06-04 16:24:00,
2013-06-04 12:29:00,65.6,45.4,29.30,North,355,5.0,5.0,48,0.00,,,0.00,Wunderground v.1.15,2013-06-04 16:29:00,
2013-06-04 12:34:00,66.7,45.3,29.31,North,360,5.0,6.0,46,0.00,,,0.00,Wunderground v.1.15,2013-06-04 16:34:00,
2013-06-04 12:39:00,66.8,44.8,29.30,NE,38,4.0,6.0,45,0.00,,,0.00,Wunderground v.1.15,2013-06-04 16:39:00,
2013-06-04 12:44:00,66.0,44.6,29.30,NE,46,5.0,6.0,46,0.00,,,0.00,Wunderground v.1.15,2013-06-04 16:44:00,
2013-06-04 12:49:00,65.4,45.2,29.30,NE,45,6.0,6.0,48,0.00,,,0.00,Wunderground v.1.15,2013-06-04 16:49:00,
2013-06-04 12:59:00,66.1,46.4,29.30,NNE,24,6.0,7.0,49,0.00,,,0.00,Wunderground v.1.15,2013-06-04 16:59:00,
2013-06-04 13:04:00,66.6,45.7,29.30,NNE,18,7.0,7.0,47,0.00,,,0.00,Wunderground v.1.15,2013-06-04 17:04:00,
2013-06-04 13:09:00,67.0,47.2,29.30,NNE,24,5.0,5.0,49,0.00,,,0.00,Wunderground v.1.15,2013-06-04 17:09:00,
2013-06-04 13:14:00,67.4,45.3,29.30,NNE,15,4.0,6.0,45,0.00,,,0.00,Wunderground v.1.15,2013-06-04 17:14:00,
2013-06-04 13:19:00,67.6,43.7,29.30,NE,36,4.0,6.0,42,0.00,,,0.00,Wunderground v.1.15,2013-06-04 17:19:00,
2013-06-04 13:29:00,67.7,45.0,29.29,NE,35,6.0,6.0,44,0.00,,,0.00,Wunderground v.1.15,2013-06-04 17:29:00,
2013-06-04 13:34:00,67.4,44.1,29.29,NE,36,5.0,6.0,43,0.00,,,0.00,Wunderground v.1.15,2013-06-04 17:34:00,
2013-06-04 13:39:00,67.1,43.2,29.29,NE,37,6.0,6.0,42,0.00,,,0.00,Wunderground v.1.15,2013-06-04 17:39:00,
2013-06-04 13:44:00,67.4,45.3,29.29,NE,44,6.0,6.0,45,0.00,,,0.00,Wunderground v.1.15,2013-06-04 17:44:00,
2013-06-04 13:49:00,67.4,44.7,29.30,NNE,19,5.0,6.0,44,0.00,,,0.00,Wunderground v.1.15,2013-06-04 17:49:00,
2013-06-04 13:54:00,67.9,44.6,29.30,NE,55,6.0,7.0,43,0.00,,,0.00,Wunderground v.1.15,2013-06-04 17:54:00,
2013-06-04 14:00:00,67.8,43.9,29.29,NE,52,5.0,5.0,42,0.00,,,0.00,Wunderground v.1.15,2013-06-04 18:00:00,
2013-06-04 14:05:00,67.7,44.4,29.29,NNE,32,5.0,6.0,43,0.00,,,0.00,Wunderground v.1.15,2013-06-04 18:05:00,
2013-06-04 14:10:00,67.4,43.5,29.29,NE,41,6.0,8.0,42,0.00,,,0.00,Wunderground v.1.15,2013-06-04 18:10:00,
2013-06-04 14:15:00,67.0,43.1,29.29,NE,49,6.0,8.0,42,0.00,,,0.00,Wunderground v.1.15,2013-06-04 18:15:00,
2013-06-04 14:20:00,66.9,44.9,29.29,NNE,13,6.0,7.0,45,0.00,,,0.00,Wunderground v.1.15,2013-06-04 18:20:00,
2013-06-04 14:25:00,67.7,44.4,29.29,North,5,5.0,7.0,43,0.00,,,0.00,Wunderground v.1.15,2013-06-04 18:25:00,
2013-06-04 14:35:00,68.8,43.5,29.30,NE,50,4.0,12.0,40,0.00,,,0.00,Wunderground v.1.15,2013-06-04 18:35:00,
2013-06-04 14:40:00,68.6,43.9,29.30,NNE,29,5.0,12.0,41,0.00,,,0.00,Wunderground v.1.15,2013-06-04 18:40:00,
2013-06-04 14:45:00,68.8,45.4,29.30,NNE,15,5.0,12.0,43,0.00,,,0.00,Wunderground v.1.15,2013-06-04 18:45:00,
2013-06-04 14:50:00,69.1,45.0,29.30,NNW,336,5.0,5.0,42,0.00,,,0.00,Wunderground v.1.15,2013-06-04 18:50:00,
2013-06-04 14:55:00,69.2,43.8,29.30,NNE,16,4.0,7.0,40,0.00,,,0.00,Wunderground v.1.15,2013-06-04 18:55:00,
2013-06-04 15:05:00,69.4,44.7,29.30,NNE,27,5.0,9.0,41,0.00,,,0.00,Wunderground v.1.15,2013-06-04 19:05:00,
2013-06-04 15:10:00,68.4,41.8,29.30,NE,49,7.0,7.0,38,0.00,,,0.00,Wunderground v.1.15,2013-06-04 19:10:00,
2013-06-04 15:15:00,67.9,44.0,29.30,NNE,29,6.0,7.0,42,0.00,,,0.00,Wunderground v.1.15,2013-06-04 19:15:00,
2013-06-04 15:20:00,68.0,41.4,29.30,NNE,31,6.0,8.0,38,0.00,,,0.00,Wunderground v.1.15,2013-06-04 19:20:00,
2013-06-04 15:25:00,68.4,41.8,29.30,NE,41,6.0,8.0,38,0.00,,,0.00,Wunderground v.1.15,2013-06-04 19:25:00,
2013-06-04 15:30:00,68.1,42.9,29.30,NE,49,7.0,7.0,40,0.00,,,0.00,Wunderground v.1.15,2013-06-04 19:30:00,
2013-06-04 15:40:00,68.5,43.2,29.29,NNE,20,5.0,9.0,40,0.00,,,0.00,Wunderground v.1.15,2013-06-04 19:40:00,
2013-06-04 15:45:00,68.5,42.6,29.29,NNE,15,6.0,9.0,39,0.00,,,0.00,Wunderground v.1.15,2013-06-04 19:45:00,
2013-06-04 15:50:00,68.9,42.9,29.30,NNE,26,6.0,11.0,39,0.00,,,0.00,Wunderground v.1.15,2013-06-04 19:50:00,
2013-06-04 15:55:00,69.0,44.3,29.30,NNW,342,6.0,11.0,41,0.00,,,0.00,Wunderground v.1.15,2013-06-04 19:55:00,
2013-06-04 16:00:00,69.4,42.7,29.30,NNE,26,5.0,8.0,38,0.00,,,0.00,Wunderground v.1.15,2013-06-04 20:00:00,
2013-06-04 16:09:00,69.0,43.7,29.29,North,11,6.0,6.0,40,0.00,,,0.00,Wunderground v.1.15,2013-06-04 20:09:00,
2013-06-04 16:14:00,68.8,43.5,29.29,NNE,30,5.0,6.0,40,0.00,,,0.00,Wunderground v.1.15,2013-06-04 20:14:00,
2013-06-04 16:19:00,69.0,43.7,29.29,North,5,4.0,4.0,40,0.00,,,0.00,Wunderground v.1.15,2013-06-04 20:19:00,
2013-06-04 16:24:00,68.8,44.1,29.28,NE,34,4.0,5.0,41,0.00,,,0.00,Wunderground v.1.15,2013-06-04 20:24:00,
2013-06-04 16:30:00,68.5,43.9,29.28,NNE,23,5.0,8.0,41,0.00,,,0.00,Wunderground v.1.15,2013-06-04 20:30:00,
2013-06-04 16:35:00,68.6,43.3,29.28,NNE,26,5.0,8.0,40,0.00,,,0.00,Wunderground v.1.15,2013-06-04 20:35:00,
2013-06-04 16:44:00,68.6,43.3,29.28,NE,37,5.0,6.0,40,0.00,,,0.00,Wunderground v.1.15,2013-06-04 20:44:00,
2013-06-04 16:49:00,68.3,43.7,29.28,NE,40,5.0,6.0,41,0.00,,,0.00,Wunderground v.1.15,2013-06-04 20:49:00,
2013-06-04 16:54:00,68.6,43.9,29.28,NE,41,6.0,9.0,41,0.00,,,0.00,Wunderground v.1.15,2013-06-04 20:54:00,
2013-06-04 16:59:00,68.2,42.3,29.28,NNE,27,7.0,7.0,39,0.00,,,0.00,Wunderground v.1.15,2013-06-04 20:59:00,
2013-06-04 17:04:00,68.2,44.2,29.29,North,5,6.0,7.0,42,0.00,,,0.00,Wunderground v.1.15,2013-06-04 21:04:00,
2013-06-04 17:14:00,68.5,43.2,29.29,NNE,26,4.0,6.0,40,0.00,,,0.00,Wunderground v.1.15,2013-06-04 21:14:00,
2013-06-04 17:19:00,68.3,43.7,29.29,NE,36,7.0,9.0,41,0.00,,,0.00,Wunderground v.1.15,2013-06-04 21:19:00,
2013-06-04 17:24:00,68.3,42.4,29.29,NE,40,7.0,9.0,39,0.00,,,0.00,Wunderground v.1.15,2013-06-04 21:24:00,
2013-06-04 17:29:00,68.4,43.8,29.28,NNE,31,5.0,5.0,41,0.00,,,0.00,Wunderground v.1.15,2013-06-04 21:29:00,
2013-06-04 17:34:00,68.7,45.3,29.29,NE,45,4.0,6.0,43,0.00,,,0.00,Wunderground v.1.15,2013-06-04 21:34:00,
2013-06-04 17:39:00,68.1,43.5,29.29,NNE,28,5.0,7.0,41,0.00,,,0.00,Wunderground v.1.15,2013-06-04 21:39:00,
2013-06-04 17:49:00,68.5,45.7,29.29,NE,42,3.0,3.0,44,0.00,,,0.00,Wunderground v.1.15,2013-06-04 21:49:00,
2013-06-04 17:54:00,68.5,45.1,29.29,North,355,5.0,5.0,43,0.00,,,0.00,Wunderground v.1.15,2013-06-04 21:54:00,
2013-06-04 17:59:00,68.4,42.5,29.29,NNW,331,5.0,5.0,39,0.00,,,0.00,Wunderground v.1.15,2013-06-04 21:59:00,
2013-06-04 18:04:00,68.4,41.8,29.29,NE,39,3.0,8.0,38,0.00,,,0.00,Wunderground v.1.15,2013-06-04 22:04:00,
2013-06-04 18:09:00,68.4,38.9,29.29,NNE,24,6.0,9.0,34,0.00,,,0.00,Wunderground v.1.15,2013-06-04 22:09:00,
2013-06-04 18:15:00,68.1,39.4,29.29,NE,38,8.0,9.0,35,0.00,,,0.00,Wunderground v.1.15,2013-06-04 22:15:00,
2013-06-04 18:20:00,67.7,39.8,29.30,NE,35,6.0,7.0,36,0.00,,,0.00,Wunderground v.1.15,2013-06-04 22:20:00,
2013-06-04 18:25:00,67.6,39.7,29.29,NNE,22,5.0,7.0,36,0.00,,,0.00,Wunderground v.1.15,2013-06-04 22:25:00,
2013-06-04 18:30:00,68.0,40.0,29.30,NNE,29,5.0,8.0,36,0.00,,,0.00,Wunderground v.1.15,2013-06-04 22:30:00,
2013-06-04 18:35:00,67.9,37.7,29.29,North,5,7.0,8.0,33,0.00,,,0.00,Wunderground v.1.15,2013-06-04 22:35:00,
2013-06-04 18:40:00,67.6,36.7,29.30,North,355,7.0,7.0,32,0.00,,,0.00,Wunderground v.1.15,2013-06-04 22:40:00,
2013-06-04 18:50:00,67.4,36.5,29.29,NE,36,5.0,5.0,32,0.00,,,0.00,Wunderground v.1.15,2013-06-04 22:50:00,
2013-06-04 18:55:00,67.1,39.2,29.30,NNE,28,5.0,6.0,36,0.00,,,0.00,Wunderground v.1.15,2013-06-04 22:55:00,
2013-06-04 19:00:00,67.1,39.2,29.30,NNE,31,5.0,7.0,36,0.00,,,0.00,Wunderground v.1.15,2013-06-04 23:00:00,
2013-06-04 19:05:00,66.8,38.3,29.30,NNE,30,7.0,8.0,35,0.00,,,0.00,Wunderground v.1.15,2013-06-04 23:05:00,
2013-06-04 19:10:00,66.6,37.3,29.30,NNE,30,7.0,8.0,34,0.00,,,0.00,Wunderground v.1.15,2013-06-04 23:10:00,
2013-06-04 19:15:00,66.4,37.9,29.30,NNE,32,6.0,8.0,35,0.00,,,0.00,Wunderground v.1.15,2013-06-04 23:15:00,
2013-06-04 19:25:00,66.4,37.2,29.30,NNE,14,4.0,6.0,34,0.00,,,0.00,Wunderground v.1.15,2013-06-04 23:25:00,
2013-06-04 19:30:00,66.4,37.2,29.31,North,360,2.0,2.0,34,0.00,,,0.00,Wunderground v.1.15,2013-06-04 23:30:00,
2013-06-04 19:35:00,66.2,37.0,29.31,NNE,17,3.0,7.0,34,0.00,,,0.00,Wunderground v.1.15,2013-06-04 23:35:00,
2013-06-04 19:40:00,66.1,39.1,29.31,NNE,18,2.0,2.0,37,0.00,,,0.00,Wunderground v.1.15,2013-06-04 23:40:00,
2013-06-04 19:45:00,66.1,39.1,29.31,NNE,18,1.0,6.0,37,0.00,,,0.00,Wunderground v.1.15,2013-06-04 23:45:00,
2013-06-04 19:55:00,65.6,39.3,29.31,NNE,16,1.0,6.0,38,0.00,,,0.00,Wunderground v.1.15,2013-06-04 23:55:00,
2013-06-04 20:00:00,65.1,38.8,29.31,NNE,16,1.0,1.0,38,0.00,,,0.00,Wunderground v.1.15,2013-06-05 00:00:00,
2013-06-04 20:05:00,64.7,37.8,29.31,NNE,17,2.0,2.0,37,0.00,,,0.00,Wunderground v.1.15,2013-06-05 00:05:00,
2013-06-04 20:10:00,64.4,39.5,29.32,NNE,17,1.0,1.0,40,0.00,,,0.00,Wunderground v.1.15,2013-06-05 00:10:00,
2013-06-04 20:15:00,64.0,39.8,29.32,NNE,17,1.0,3.0,41,0.00,,,0.00,Wunderground v.1.15,2013-06-05 00:15:00,
2013-06-04 20:20:00,63.3,39.8,29.32,NNE,17,0.0,6.0,42,0.00,,,0.00,Wunderground v.1.15,2013-06-05 00:20:00,
2013-06-04 20:29:00,61.9,39.1,29.31,NNE,17,0.0,6.0,43,0.00,,,0.00,Wunderground v.1.15,2013-06-05 00:29:00,
2013-06-04 20:34:00,61.3,38.6,29.32,NNE,17,0.0,6.0,43,0.00,,,0.00,Wunderground v.1.15,2013-06-05 00:34:00,
2013-06-04 20:39:00,60.9,37.6,29.32,NNE,17,0.0,6.0,42,0.00,,,0.00,Wunderground v.1.15,2013-06-05 00:39:00,
2013-06-04 20:44:00,60.5,37.9,29.32,NNE,17,0.0,6.0,43,0.00,,,0.00,Wunderground v.1.15,2013-06-05 00:44:00,
2013-06-04 20:49:00,60.2,38.8,29.32,NNE,17,0.0,6.0,45,0.00,,,0.00,Wunderground v.1.15,2013-06-05 00:49:00,
2013-06-04 20:59:00,59.7,37.7,29.32,NNE,17,0.0,6.0,44,0.00,,,0.00,Wunderground v.1.15,2013-06-05 00:59:00,
2013-06-04 21:04:00,59.6,40.9,29.32,NNE,17,0.0,6.0,50,0.00,,,0.00,Wunderground v.1.15,2013-06-05 01:04:00,
2013-06-04 21:09:00,59.2,37.9,29.32,NNE,17,0.0,6.0,45,0.00,,,0.00,Wunderground v.1.15,2013-06-05 01:09:00,
2013-06-04 21:14:00,59.0,39.9,29.32,NNE,17,0.0,6.0,49,0.00,,,0.00,Wunderground v.1.15,2013-06-05 01:14:00,
2013-06-04 21:19:00,58.8,40.7,29.32,NNE,17,0.0,6.0,51,0.00,,,0.00,Wunderground v.1.15,2013-06-05 01:19:00,
2013-06-04 21:24:00,58.6,40.5,29.32,NNE,17,0.0,6.0,51,0.00,,,0.00,Wunderground v.1.15,2013-06-05 01:24:00,
2013-06-04 21:34:00,58.2,41.6,29.33,NNE,17,0.0,6.0,54,0.00,,,0.00,Wunderground v.1.15,2013-06-05 01:34:00,
2013-06-04 21:39:00,58.0,41.4,29.33,NNE,17,0.0,6.0,54,0.00,,,0.00,Wunderground v.1.15,2013-06-05 01:39:00,
2013-06-04 21:44:00,57.7,41.2,29.33,NNE,17,0.0,6.0,54,0.00,,,0.00,Wunderground v.1.15,2013-06-05 01:44:00,
2013-06-04 21:49:00,57.4,40.9,29.33,NNE,17,0.0,6.0,54,0.00,,,0.00,Wunderground v.1.15,2013-06-05 01:49:00,
2013-06-04 21:54:00,57.3,41.3,29.33,NNE,17,0.0,6.0,55,0.00,,,0.00,Wunderground v.1.15,2013-06-05 01:54:00,
2013-06-04 22:04:00,57.0,42.8,29.33,NNE,17,0.0,6.0,59,0.00,,,0.00,Wunderground v.1.15,2013-06-05 02:04:00,
2013-06-04 22:09:00,56.7,42.5,29.32,NNE,17,0.0,6.0,59,0.00,,,0.00,Wunderground v.1.15,2013-06-05 02:09:00,
2013-06-04 22:14:00,56.5,43.6,29.33,NNE,17,0.0,6.0,62,0.00,,,0.00,Wunderground v.1.15,2013-06-05 02:14:00,
2013-06-04 22:19:00,56.2,43.3,29.33,NNE,17,0.0,6.0,62,0.00,,,0.00,Wunderground v.1.15,2013-06-05 02:19:00,
2013-06-04 22:24:00,56.0,42.7,29.33,WNW,293,0.0,6.0,61,0.00,,,0.00,Wunderground v.1.15,2013-06-05 02:24:00,
2013-06-04 22:29:00,55.7,42.0,29.33,WNW,294,0.0,6.0,60,0.00,,,0.00,Wunderground v.1.15,2013-06-05 02:29:00,
2013-06-04 22:35:00,55.7,41.6,29.33,WNW,294,0.0,6.0,59,0.00,,,0.00,Wunderground v.1.15,2013-06-05 02:35:00,
2013-06-04 22:40:00,55.7,43.3,29.33,WNW,294,0.0,6.0,63,0.00,,,0.00,Wunderground v.1.15,2013-06-05 02:40:00,
2013-06-04 22:45:00,55.5,43.9,29.33,WNW,294,0.0,6.0,65,0.00,,,0.00,Wunderground v.1.15,2013-06-05 02:45:00,
2013-06-04 22:50:00,55.3,43.7,29.33,WNW,294,0.0,6.0,65,0.00,,,0.00,Wunderground v.1.15,2013-06-05 02:50:00,
2013-06-04 22:55:00,55.1,43.5,29.33,WNW,294,0.0,6.0,65,0.00,,,0.00,Wunderground v.1.15,2013-06-05 02:55:00,
2013-06-04 23:00:00,55.0,43.8,29.33,WNW,294,0.0,6.0,66,0.00,,,0.00,Wunderground v.1.15,2013-06-05 03:00:00,
2013-06-04 23:10:00,54.7,43.2,29.33,WNW,294,0.0,6.0,65,0.00,,,0.00,Wunderground v.1.15,2013-06-05 03:10:00,
2013-06-04 23:15:00,54.6,43.1,29.33,WNW,294,0.0,6.0,65,0.00,,,0.00,Wunderground v.1.15,2013-06-05 03:15:00,
2013-06-04 23:20:00,54.5,43.0,29.33,WNW,294,0.0,6.0,65,0.00,,,0.00,Wunderground v.1.15,2013-06-05 03:20:00,
2013-06-04 23:25:00,54.6,43.1,29.33,WNW,294,0.0,6.0,65,0.00,,,0.00,Wunderground v.1.15,2013-06-05 03:25:00,
2013-06-04 23:30:00,54.6,43.5,29.33,WNW,294,0.0,6.0,66,0.00,,,0.00,Wunderground v.1.15,2013-06-05 03:30:00,
2013-06-04 23:40:00,54.6,43.5,29.33,WNW,294,0.0,6.0,66,0.00,,,0.00,Wunderground v.1.15,2013-06-05 03:40:00,
2013-06-04 23:45:00,54.6,43.5,29.33,WNW,294,0.0,6.0,66,0.00,,,0.00,Wunderground v.1.15,2013-06-05 03:45:00,
2013-06-04 23:50:00,54.6,43.5,29.33,WNW,294,0.0,6.0,66,0.00,,,0.00,Wunderground v.1.15,2013-06-05 03:50:00,
2013-06-04 23:55:00,54.7,42.8,29.33,WNW,294,0.0,6.0,64,0.00,,,0.00,Wunderground v.1.15,2013-06-05 03:55:00,